Location: Foligno
(42.9600°N, 12.7050°E)
Time: 11:32:31
(UTC+02:00)

ISS - Pass Details

Date: 14 May 2021
Orbit: 417 x 422 km, 51.6° (Epoch: 15 May)

Event Time Altitude Azimuth Distance (km) Brightness Sun altitude
Rises 22:48:14 0° 243° (WSW) 2,351 0.1 -20.6°
Reaches altitude 10° 22:50:20 10° 246° (WSW) 1,492 -0.9 -20.8°
Maximum altitude 22:53:40 65° 329° (NNW) 462 -3.4 -21.2°
Enters shadow 22:55:33 24° 47° (NE) 928 -2.0 -21.3°
Exits shadow 22:57:50 - 54° (NE) 1,835 -0.5 -21.6°
Sets 22:59:08 0° 56° (NE) 2,368 0.1 -21.7°
